NOZ148 ESGG-EDDF

Flight info

Callsign NOZ148
Flight time 1h 24m
Altitude 35000
Route TOPLA3J TOPLA L996 ERNOV DCT NIKDA DCT NOBRI DCT BUMIL DCT HLZ DCT RIMET T157 KERAX KERAX5A
Aircraft B738/M-V/N

Departure

Time 2026-05-04 13:29
Airport Göteborg Landvetter Airport (ESGG)

Arrival

Time 2026-05-04 14:54
Airport Frankfurt Main Airport (EDDF)
Time Latitude Longitude Altitude Speed Heading
2026-05-04 13:04 57.66779 12.29311 526 ft 0 kts 117°
2026-05-04 13:17 57.66779 12.29310 526 ft 1 kts 117°
2026-05-04 13:17 57.66786 12.29285 526 ft 3 kts 117°
2026-05-04 13:17 57.66795 12.29253 526 ft 2 kts 117°
2026-05-04 13:18 57.66803 12.29226 526 ft 3 kts 137°
2026-05-04 13:18 57.66817 12.29211 526 ft 3 kts 186°
2026-05-04 13:18 57.66835 12.29221 526 ft 2 kts 206°
2026-05-04 13:18 57.66842 12.29227 526 ft 1 kts 206°
2026-05-04 13:19 57.66842 12.29228 526 ft 0 kts 206°
2026-05-04 13:23 57.66839 12.29225 526 ft 1 kts 206°
2026-05-04 13:23 57.66821 12.29208 526 ft 4 kts 206°
2026-05-04 13:23 57.66784 12.29173 525 ft 7 kts 206°
2026-05-04 13:24 57.66742 12.29135 525 ft 7 kts 206°
2026-05-04 13:24 57.66689 12.29085 524 ft 10 kts 207°
2026-05-04 13:24 57.66623 12.29026 524 ft 10 kts 213°
2026-05-04 13:25 57.66690 12.28866 524 ft 11 kts 20°
2026-05-04 13:25 57.66763 12.28931 524 ft 12 kts 25°
2026-05-04 13:25 57.66843 12.29002 525 ft 13 kts 27°
2026-05-04 13:25 57.66928 12.29081 526 ft 14 kts 26°
2026-05-04 13:26 57.67019 12.29165 527 ft 15 kts 26°
2026-05-04 13:26 57.67119 12.29255 528 ft 16 kts 25°
2026-05-04 13:26 57.67227 12.29354 529 ft 18 kts 25°
2026-05-04 13:26 57.67329 12.29448 530 ft 11 kts 32°
2026-05-04 13:27 57.67378 12.29480 531 ft 7 kts 359°
2026-05-04 13:27 57.67422 12.29428 531 ft 9 kts 303°
2026-05-04 13:27 57.67450 12.29321 531 ft 10 kts 294°
2026-05-04 13:27 57.67460 12.29184 530 ft 12 kts 266°
2026-05-04 13:28 57.67446 12.29044 529 ft 7 kts 237°
2026-05-04 13:28 57.67400 12.28993 529 ft 8 kts 206°
2026-05-04 13:28 57.67280 12.28883 529 ft 46 kts 206°
2026-05-04 13:28 57.66771 12.28420 522 ft 114 kts 206°
2026-05-04 13:29 57.65903 12.27656 613 ft 158 kts 206°
2026-05-04 13:29 57.64903 12.26742 1272 ft 165 kts 213°
2026-05-04 13:29 57.63872 12.25809 2224 ft 162 kts 210°
2026-05-04 13:29 57.62780 12.24818 2678 ft 188 kts 215°
2026-05-04 13:30 57.61611 12.23558 3226 ft 198 kts 210°
2026-05-04 13:30 57.60179 12.23035 3498 ft 228 kts 186°
2026-05-04 13:30 57.58561 12.22958 3910 ft 238 kts 188°
2026-05-04 13:30 57.56873 12.22740 4421 ft 246 kts 190°
2026-05-04 13:31 57.55179 12.22593 5105 ft 249 kts 183°
2026-05-04 13:31 57.53442 12.22945 5777 ft 252 kts 177°
2026-05-04 13:31 57.51697 12.23450 6382 ft 255 kts 177°
2026-05-04 13:31 57.49937 12.23980 6940 ft 257 kts 177°
2026-05-04 13:32 57.48163 12.24506 7526 ft 258 kts 177°
2026-05-04 13:32 57.46383 12.25020 8104 ft 260 kts 178°
2026-05-04 13:32 57.44585 12.25529 8667 ft 262 kts 178°
2026-05-04 13:32 57.42776 12.26033 9282 ft 264 kts 179°
2026-05-04 13:33 57.40940 12.26537 9715 ft 274 kts 179°
2026-05-04 13:33 57.38990 12.27059 10030 ft 290 kts 178°
2026-05-04 13:33 57.36894 12.27615 10198 ft 316 kts 178°
2026-05-04 13:33 57.34641 12.28215 10441 ft 338 kts 178°
2026-05-04 13:34 57.32303 12.28847 10996 ft 347 kts 177°
2026-05-04 13:34 57.29895 12.29505 11736 ft 351 kts 178°
2026-05-04 13:34 57.27471 12.30167 12509 ft 353 kts 178°
2026-05-04 13:34 57.25021 12.30831 13255 ft 357 kts 178°
2026-05-04 13:35 57.22551 12.31497 13929 ft 362 kts 178°
2026-05-04 13:35 57.17507 12.32848 15258 ft 369 kts 178°
2026-05-04 13:35 57.14948 12.33528 15915 ft 372 kts 178°
2026-05-04 13:36 57.12409 12.34197 16533 ft 376 kts 179°
2026-05-04 13:36 57.09799 12.34851 17179 ft 380 kts 179°
2026-05-04 13:36 57.07172 12.35493 17808 ft 383 kts 179°
2026-05-04 13:36 57.04508 12.36141 18396 ft 387 kts 179°
2026-05-04 13:37 57.01822 12.36797 18927 ft 390 kts 179°
2026-05-04 13:37 56.99124 12.37459 19494 ft 392 kts 179°
2026-05-04 13:37 56.96402 12.38129 20042 ft 396 kts 179°
2026-05-04 13:37 56.94589 12.38574 20387 ft 398 kts 179°
2026-05-04 13:38 56.90892 12.39483 21094 ft 402 kts 179°
2026-05-04 13:38 56.88108 12.40167 21614 ft 404 kts 179°
2026-05-04 13:38 56.85316 12.40853 22181 ft 406 kts 179°
2026-05-04 13:38 56.82504 12.41543 22662 ft 410 kts 179°
2026-05-04 13:39 56.79695 12.42229 23123 ft 413 kts 179°
2026-05-04 13:39 56.76829 12.42929 23579 ft 416 kts 179°
2026-05-04 13:39 56.73942 12.43633 23953 ft 419 kts 178°
2026-05-04 13:39 56.71042 12.44340 24341 ft 422 kts 178°
2026-05-04 13:40 56.68118 12.45051 24715 ft 425 kts 178°
2026-05-04 13:40 56.65171 12.45767 25083 ft 428 kts 178°
2026-05-04 13:40 56.62206 12.46487 25440 ft 431 kts 178°
2026-05-04 13:40 56.59257 12.47201 25794 ft 434 kts 178°
2026-05-04 13:41 56.56252 12.47928 26147 ft 437 kts 178°
2026-05-04 13:41 56.53232 12.48658 26493 ft 439 kts 177°
2026-05-04 13:41 56.50183 12.49395 26832 ft 442 kts 177°
2026-05-04 13:42 56.44054 12.50872 27589 ft 444 kts 177°
2026-05-04 13:42 56.40976 12.51609 27916 ft 447 kts 177°
2026-05-04 13:42 56.37880 12.52351 28186 ft 450 kts 177°
2026-05-04 13:42 56.34757 12.53101 28475 ft 453 kts 177°
2026-05-04 13:43 56.31621 12.53857 28779 ft 455 kts 177°
2026-05-04 13:43 56.28513 12.54606 29120 ft 457 kts 177°
2026-05-04 13:43 56.25367 12.55366 29552 ft 456 kts 177°
2026-05-04 13:43 56.22218 12.56124 30021 ft 454 kts 177°
2026-05-04 13:44 56.19099 12.56869 30416 ft 450 kts 178°
2026-05-04 13:44 56.16023 12.57287 31120 ft 436 kts 186°
2026-05-04 13:44 56.13024 12.56889 31478 ft 431 kts 191°
2026-05-04 13:44 56.10020 12.56273 31649 ft 435 kts 192°
2026-05-04 13:45 56.07012 12.55628 31860 ft 437 kts 192°
2026-05-04 13:45 56.04001 12.54992 32214 ft 435 kts 192°
2026-05-04 13:45 56.01027 12.54385 32619 ft 433 kts 191°
2026-05-04 13:45 55.98040 12.53793 32976 ft 432 kts 191°
2026-05-04 13:46 55.95042 12.53211 33264 ft 433 kts 191°
2026-05-04 13:46 55.92048 12.52636 33645 ft 428 kts 192°
2026-05-04 13:46 55.89116 12.52085 34245 ft 420 kts 192°
2026-05-04 13:46 55.86215 12.51540 34487 ft 420 kts 192°
2026-05-04 13:47 55.83293 12.50988 34634 ft 423 kts 192°
2026-05-04 13:47 55.80350 12.50430 34783 ft 425 kts 192°
2026-05-04 13:47 55.77403 12.49873 34912 ft 427 kts 192°
2026-05-04 13:47 55.77088 12.49814 34918 ft 427 kts 192°
2026-05-04 13:48 55.71497 12.48764 34934 ft 426 kts 192°
2026-05-04 13:49 55.65600 12.47663 34918 ft 424 kts 192°
2026-05-04 13:49 55.59743 12.46571 34929 ft 421 kts 192°
2026-05-04 13:50 55.53924 12.45488 34928 ft 419 kts 192°
2026-05-04 13:50 55.48124 12.44411 34929 ft 418 kts 192°
2026-05-04 13:51 55.42378 12.43346 34939 ft 417 kts 192°
2026-05-04 13:51 55.36585 12.42275 34946 ft 418 kts 192°
2026-05-04 13:52 55.27871 12.40672 34937 ft 420 kts 192°
2026-05-04 13:53 55.22096 12.39614 34936 ft 420 kts 192°
2026-05-04 13:53 55.16280 12.38552 34936 ft 420 kts 192°
2026-05-04 13:54 55.07545 12.36963 34931 ft 419 kts 192°
2026-05-04 13:55 54.98837 12.35385 34942 ft 419 kts 192°
2026-05-04 13:55 54.90175 12.33823 34948 ft 418 kts 192°
2026-05-04 13:56 54.84401 12.32787 34938 ft 416 kts 192°
2026-05-04 13:57 54.76760 12.31420 34945 ft 413 kts 192°
2026-05-04 13:58 54.65381 12.29393 34949 ft 410 kts 192°
2026-05-04 13:58 54.57113 12.26711 34962 ft 398 kts 203°
2026-05-04 13:59 54.51827 12.23852 34959 ft 398 kts 203°
2026-05-04 14:00 54.43882 12.19624 34961 ft 398 kts 202°
2026-05-04 14:00 54.35926 12.15450 34957 ft 399 kts 202°
2026-05-04 14:01 54.30601 12.12669 34966 ft 401 kts 202°
2026-05-04 14:02 54.22600 12.08505 34963 ft 403 kts 202°
2026-05-04 14:02 54.17217 12.05714 34963 ft 404 kts 202°
2026-05-04 14:03 54.11816 12.02921 34954 ft 405 kts 202°
2026-05-04 14:03 54.06419 12.00138 34959 ft 406 kts 202°
2026-05-04 14:04 53.98339 11.95986 34957 ft 406 kts 202°
2026-05-04 14:04 53.92922 11.93211 34956 ft 406 kts 202°
2026-05-04 14:05 53.84817 11.89074 34949 ft 405 kts 202°
2026-05-04 14:06 53.79431 11.86334 34955 ft 404 kts 202°
2026-05-04 14:06 53.74091 11.83624 34947 ft 403 kts 202°
2026-05-04 14:07 53.68720 11.80906 34946 ft 403 kts 202°
2026-05-04 14:07 53.63348 11.78194 34942 ft 402 kts 202°
2026-05-04 14:08 53.57990 11.75497 34936 ft 402 kts 202°
2026-05-04 14:08 53.52627 11.72804 34947 ft 401 kts 202°
2026-05-04 14:09 53.44619 11.68797 34948 ft 402 kts 202°
2026-05-04 14:10 53.36555 11.64779 34940 ft 403 kts 202°
2026-05-04 14:10 53.31182 11.62110 34947 ft 403 kts 202°
2026-05-04 14:11 53.26110 11.58569 34953 ft 392 kts 219°
2026-05-04 14:11 53.22167 11.52461 34942 ft 386 kts 236°
2026-05-04 14:11 53.20621 11.48800 34952 ft 385 kts 237°
2026-05-04 14:12 53.17540 11.41459 34943 ft 386 kts 236°
2026-05-04 14:13 53.12529 11.30943 34947 ft 390 kts 224°
2026-05-04 14:13 53.07995 11.25884 34940 ft 399 kts 209°
2026-05-04 14:14 53.02843 11.22433 34951 ft 401 kts 206°
2026-05-04 14:14 52.95024 11.17406 34948 ft 401 kts 206°
2026-05-04 14:15 52.84695 11.10682 34953 ft 399 kts 206°
2026-05-04 14:16 52.76948 11.05639 34955 ft 398 kts 206°
2026-05-04 14:17 52.69251 11.00648 34944 ft 397 kts 207°
2026-05-04 14:18 52.61528 10.95659 34949 ft 398 kts 206°
2026-05-04 14:19 52.51234 10.89040 34961 ft 398 kts 206°
2026-05-04 14:19 52.46072 10.85734 34957 ft 398 kts 206°
2026-05-04 14:20 52.40912 10.82437 34966 ft 398 kts 206°
2026-05-04 14:20 52.35725 10.79137 34966 ft 400 kts 206°
2026-05-04 14:21 52.27859 10.74598 34969 ft 401 kts 204°
2026-05-04 14:21 52.22565 10.71619 34965 ft 402 kts 204°
2026-05-04 14:22 52.17303 10.68642 34968 ft 403 kts 204°
2026-05-04 14:22 52.12008 10.65640 34967 ft 403 kts 204°
2026-05-04 14:23 52.04039 10.61132 34956 ft 403 kts 204°
2026-05-04 14:24 51.98734 10.58140 34965 ft 403 kts 204°
2026-05-04 14:24 51.93473 10.55180 34973 ft 403 kts 204°
2026-05-04 14:25 51.88164 10.52200 34969 ft 403 kts 204°
2026-05-04 14:25 51.80200 10.47745 34950 ft 402 kts 204°
2026-05-04 14:26 51.77592 10.46294 34945 ft 391 kts 204°
2026-05-04 14:26 51.75045 10.44880 34954 ft 382 kts 204°
2026-05-04 14:26 51.70168 10.42171 34953 ft 365 kts 204°
2026-05-04 14:27 51.65443 10.39546 34951 ft 352 kts 204°
2026-05-04 14:27 51.60884 10.37020 34957 ft 341 kts 205°
2026-05-04 14:28 51.56431 10.34554 34951 ft 335 kts 204°
2026-05-04 14:28 51.52100 10.32165 34955 ft 329 kts 204°
2026-05-04 14:29 51.47693 10.29729 34978 ft 341 kts 204°
2026-05-04 14:29 51.43168 10.27061 34973 ft 351 kts 208°
2026-05-04 14:30 51.40904 10.25421 34737 ft 364 kts 209°
2026-05-04 14:30 51.38553 10.23644 34243 ft 384 kts 210°
2026-05-04 14:30 51.33524 10.19844 33206 ft 405 kts 208°
2026-05-04 14:31 51.30968 10.17951 32661 ft 403 kts 208°
2026-05-04 14:31 51.25961 10.14289 31601 ft 395 kts 207°
2026-05-04 14:32 51.20998 10.10681 30596 ft 388 kts 207°
2026-05-04 14:32 51.18552 10.08906 30107 ft 384 kts 207°
2026-05-04 14:32 51.16125 10.07146 29546 ft 382 kts 207°
2026-05-04 14:32 51.13722 10.05405 28971 ft 379 kts 207°
2026-05-04 14:33 51.11320 10.03666 28432 ft 377 kts 207°
2026-05-04 14:33 51.08941 10.01946 27883 ft 374 kts 207°
2026-05-04 14:33 51.06572 10.00236 27358 ft 372 kts 207°
2026-05-04 14:33 51.04226 9.98546 26838 ft 370 kts 207°
2026-05-04 14:34 51.01917 9.96882 26341 ft 368 kts 207°
2026-05-04 14:34 50.99587 9.95204 25857 ft 366 kts 206°
2026-05-04 14:34 50.97275 9.93539 25373 ft 365 kts 206°
2026-05-04 14:34 50.94966 9.91881 24854 ft 364 kts 206°
2026-05-04 14:35 50.92619 9.90198 24293 ft 366 kts 206°
2026-05-04 14:35 50.90323 9.88552 23767 ft 366 kts 206°
2026-05-04 14:35 50.88004 9.86892 23193 ft 366 kts 206°
2026-05-04 14:35 50.85677 9.85228 22566 ft 366 kts 206°
2026-05-04 14:36 50.83351 9.83567 21958 ft 367 kts 206°
2026-05-04 14:36 50.81024 9.81907 21361 ft 367 kts 205°
2026-05-04 14:36 50.78695 9.80247 20779 ft 366 kts 205°
2026-05-04 14:36 50.76371 9.78593 20205 ft 366 kts 205°
2026-05-04 14:37 50.74045 9.76939 19643 ft 366 kts 205°
2026-05-04 14:37 50.71722 9.75289 19091 ft 366 kts 205°
2026-05-04 14:37 50.69396 9.73639 18552 ft 366 kts 205°
2026-05-04 14:37 50.67073 9.71993 17970 ft 366 kts 205°
2026-05-04 14:38 50.64752 9.70351 17365 ft 365 kts 205°
2026-05-04 14:38 50.62463 9.68733 16781 ft 365 kts 205°
2026-05-04 14:38 50.60157 9.67104 16269 ft 362 kts 205°
2026-05-04 14:38 50.57866 9.65489 15762 ft 360 kts 205°
2026-05-04 14:39 50.55593 9.63886 15265 ft 357 kts 204°
2026-05-04 14:39 50.53330 9.62292 14778 ft 355 kts 205°
2026-05-04 14:39 50.51087 9.60704 14295 ft 352 kts 205°
2026-05-04 14:40 50.47164 9.56280 13309 ft 348 kts 225°
2026-05-04 14:40 50.45479 9.53592 12925 ft 342 kts 224°
2026-05-04 14:40 50.43809 9.50994 12610 ft 335 kts 224°
2026-05-04 14:40 50.42163 9.48445 12298 ft 329 kts 224°
2026-05-04 14:41 50.40556 9.45956 11977 ft 319 kts 224°
2026-05-04 14:41 50.38998 9.43535 11471 ft 312 kts 224°
2026-05-04 14:41 50.35975 9.38850 10481 ft 300 kts 224°
2026-05-04 14:42 50.33059 9.34331 9479 ft 289 kts 224°
2026-05-04 14:42 50.31638 9.32138 8956 ft 285 kts 224°
2026-05-04 14:42 50.30226 9.29978 8448 ft 282 kts 224°
2026-05-04 14:43 50.28822 9.27854 7936 ft 280 kts 224°
2026-05-04 14:43 50.27436 9.25780 7555 ft 281 kts 223°
2026-05-04 14:43 50.25997 9.23623 7122 ft 281 kts 224°
2026-05-04 14:43 50.24607 9.21568 6696 ft 275 kts 224°
2026-05-04 14:44 50.23220 9.19528 6248 ft 273 kts 224°
2026-05-04 14:44 50.21841 9.17503 5982 ft 270 kts 224°
2026-05-04 14:44 50.20482 9.15522 5766 ft 266 kts 224°
2026-05-04 14:44 50.19140 9.13578 5580 ft 260 kts 224°
2026-05-04 14:45 50.17825 9.11677 5404 ft 255 kts 226°
2026-05-04 14:45 50.17106 9.10245 5272 ft 252 kts 244°
2026-05-04 14:45 50.16712 9.07633 5117 ft 248 kts 269°
2026-05-04 14:45 50.16696 9.04989 5019 ft 240 kts 259°
2026-05-04 14:46 50.16176 9.02593 5025 ft 228 kts 250°
2026-05-04 14:46 50.15665 9.00279 5013 ft 220 kts 251°
2026-05-04 14:46 50.15178 8.98049 4983 ft 212 kts 251°
2026-05-04 14:46 50.14704 8.95950 4974 ft 199 kts 251°
2026-05-04 14:47 50.14251 8.93989 5000 ft 186 kts 251°
2026-05-04 14:47 50.13826 8.92100 5023 ft 186 kts 252°
2026-05-04 14:47 50.13412 8.90193 5018 ft 185 kts 251°
2026-05-04 14:47 50.12982 8.88317 5011 ft 179 kts 250°
2026-05-04 14:48 50.12552 8.86504 5014 ft 181 kts 250°
2026-05-04 14:48 50.12098 8.84616 4793 ft 188 kts 250°
2026-05-04 14:48 50.11641 8.82720 4516 ft 184 kts 251°
2026-05-04 14:48 50.11192 8.80865 4252 ft 183 kts 250°
2026-05-04 14:49 50.10746 8.79023 3992 ft 180 kts 251°
2026-05-04 14:49 50.10314 8.77231 3753 ft 178 kts 251°
2026-05-04 14:49 50.09875 8.75412 3490 ft 179 kts 251°
2026-05-04 14:49 50.09433 8.73584 3250 ft 181 kts 250°
2026-05-04 14:50 50.08995 8.71771 2967 ft 175 kts 251°
2026-05-04 14:50 50.08581 8.70053 2738 ft 163 kts 252°
2026-05-04 14:50 50.08201 8.68477 2507 ft 150 kts 251°
2026-05-04 14:50 50.07859 8.67049 2312 ft 135 kts 252°
2026-05-04 14:51 50.07546 8.65744 2156 ft 129 kts 251°
2026-05-04 14:51 50.07214 8.64357 1951 ft 141 kts 250°
2026-05-04 14:51 50.06869 8.62920 1738 ft 140 kts 250°
2026-05-04 14:51 50.06535 8.61529 1531 ft 136 kts 251°
2026-05-04 14:52 50.06199 8.60154 1354 ft 136 kts 252°
2026-05-04 14:52 50.05864 8.58745 1189 ft 139 kts 252°
2026-05-04 14:52 50.05542 8.57353 979 ft 136 kts 250°
2026-05-04 14:52 50.05212 8.55956 782 ft 140 kts 247°
2026-05-04 14:53 50.04865 8.54550 591 ft 141 kts 247°
2026-05-04 14:53 50.04524 8.53117 393 ft 138 kts 247°
2026-05-04 14:53 50.04227 8.51835 363 ft 115 kts 242°
2026-05-04 14:53 50.03990 8.50904 349 ft 71 kts 250°
2026-05-04 14:54 50.03871 8.50460 333 ft 32 kts 237°
2026-05-04 14:54 50.03752 8.50265 331 ft 13 kts 219°
2026-05-04 14:54 50.03661 8.50180 326 ft 17 kts 180°
2026-05-04 14:54 50.03639 8.50327 329 ft 16 kts 69°
2026-05-04 14:55 50.03678 8.50489 334 ft 16 kts 70°
2026-05-04 14:55 50.03720 8.50671 337 ft 20 kts 70°
2026-05-04 14:55 50.03762 8.50872 342 ft 19 kts 84°
2026-05-04 14:55 50.03720 8.51068 349 ft 19 kts 117°
2026-05-04 14:56 50.03661 8.51257 355 ft 19 kts 117°
2026-05-04 14:56 50.03603 8.51440 359 ft 19 kts 116°
2026-05-04 14:56 50.03561 8.51574 353 ft 18 kts 116°
2026-05-04 14:56 50.03513 8.51744 360 ft 15 kts 102°
2026-05-04 14:57 50.03521 8.51918 367 ft 17 kts 83°
2026-05-04 14:57 50.03534 8.52092 369 ft 16 kts 83°
2026-05-04 14:57 50.03544 8.52240 372 ft 11 kts 98°
2026-05-04 14:57 50.03498 8.52324 375 ft 11 kts 138°
2026-05-04 14:58 50.03492 8.52433 377 ft 11 kts 70°
2026-05-04 14:58 50.03507 8.52550 379 ft 11 kts 89°
2026-05-04 14:58 50.03514 8.52671 380 ft 12 kts 75°
2026-05-04 14:58 50.03552 8.52827 374 ft 19 kts 71°
2026-05-04 14:59 50.03597 8.53026 366 ft 18 kts 69°
2026-05-04 14:59 50.03646 8.53229 358 ft 21 kts 70°
2026-05-04 14:59 50.03685 8.53562 366 ft 14 kts 148°
2026-05-04 15:00 50.03594 8.53538 363 ft 14 kts 202°
2026-05-04 15:00 50.03511 8.53482 365 ft 11 kts 189°
2026-05-04 15:00 50.03478 8.53564 368 ft 11 kts 73°
2026-05-04 15:01 50.03544 8.53834 366 ft 16 kts 69°
2026-05-04 15:01 50.03585 8.54005 371 ft 17 kts 70°
2026-05-04 15:01 50.03628 8.54187 368 ft 20 kts 69°
2026-05-04 15:01 50.03678 8.54397 371 ft 21 kts 70°
2026-05-04 15:02 50.03735 8.54638 367 ft 26 kts 73°
2026-05-04 15:02 50.03803 8.54918 359 ft 30 kts 70°
2026-05-04 15:02 50.03874 8.55216 362 ft 29 kts 69°
2026-05-04 15:02 50.03941 8.55502 363 ft 27 kts 70°
2026-05-04 15:03 50.04011 8.55793 361 ft 29 kts 70°
2026-05-04 15:03 50.04084 8.56095 355 ft 31 kts 69°
2026-05-04 15:03 50.04152 8.56383 349 ft 29 kts 69°
2026-05-04 15:03 50.04217 8.56656 356 ft 25 kts 70°
2026-05-04 15:04 50.04258 8.56824 355 ft 11 kts 69°
2026-05-04 15:04 50.04286 8.56941 356 ft 13 kts 69°
2026-05-04 15:04 50.04322 8.57091 351 ft 17 kts 69°
2026-05-04 15:04 50.04368 8.57280 349 ft 20 kts 69°
2026-05-04 15:05 50.04414 8.57482 336 ft 8 kts 68°
2026-05-04 15:05 50.04433 8.57555 337 ft 8 kts 69°
2026-05-04 15:05 50.04452 8.57636 339 ft 9 kts 69°
2026-05-04 15:05 50.04477 8.57739 336 ft 12 kts 70°
2026-05-04 15:06 50.04508 8.57877 337 ft 15 kts 70°
2026-05-04 15:06 50.04540 8.58008 338 ft 13 kts 70°
2026-05-04 15:06 50.04576 8.58156 333 ft 16 kts 69°
2026-05-04 15:07 50.04666 8.58534 328 ft 20 kts 70°
2026-05-04 15:07 50.04708 8.58708 327 ft 10 kts 66°
2026-05-04 15:07 50.04767 8.58753 329 ft 10 kts 348°
2026-05-04 15:07 50.04833 8.58716 335 ft 10 kts 339°
2026-05-04 15:08 50.04897 8.58679 335 ft 10 kts 339°
2026-05-04 15:08 50.04953 8.58708 349 ft 9 kts 56°
2026-05-04 15:08 50.04980 8.58801 351 ft 9 kts 69°
2026-05-04 15:08 50.05002 8.58893 349 ft 9 kts 69°
2026-05-04 15:09 50.05023 8.58984 354 ft 9 kts 70°
2026-05-04 15:09 50.05043 8.59068 357 ft 8 kts 68°
2026-05-04 15:09 50.05037 8.59117 358 ft 4 kts 127°
2026-05-04 15:10 50.05009 8.59136 354 ft 2 kts 162°
2026-05-04 15:10 50.04991 8.59145 360 ft 2 kts 160°
2026-05-04 15:10 50.04981 8.59151 357 ft 0 kts 160°